Location: Kimberly
(42.5380°N, 114.3640°W)
Time: 10:30:09
(UTC-06:00)

X-37B - Pass Details

Date: 09 August 2021
Orbit: 381 x 393 km, 45.0° (Epoch: 29 August)

Event Time Altitude Azimuth Distance (km) Brightness Sun altitude
Exits shadow 03:55:24 27° 60° (ENE) 761 2.6 -24.3°
Drops below altitude 10° 03:57:05 10° 73° (ENE) 1,394 4.1 -24.1°
Sets 03:59:10 0° 78° (ENE) 2,247 5.2 -23.9°
